EW2876 Brooklyn NY US current weather conditions

sailwx.info

Wind from 295

Last reported at 2020-Jan-28 21:01 UTC.
Time now 2020-Jan-28 22:04 UTC

Location: N 40°38' W 074°02'.
View on Google Maps.

See reports from other nearby stations

  
Tides and Currents Weather Stations Pressure Air Temp Water Temp Dewpoint Dewpoint Depression Visibility Wind Speed Wind Dir Waves Ship Positions
date/time (UTC)wind fromknots sea level pressurealtimeterstation pressurevisibilityair tempwater tempwave heightnotes
2020-Jan-28 21:01 295
2020-Jan-28 20:55 290
2020-Jan-28 20:50 271 0 gusting 4
2020-Jan-28 20:40 292 0 gusting 4
2020-Jan-28 20:35 294 1 gusting 6
2020-Jan-28 20:30 300 1 gusting 6
2020-Jan-28 20:25 309 0 gusting 4
2020-Jan-28 20:20 292
2020-Jan-28 20:15 281 1 gusting 6
2020-Jan-28 20:10 288 0 gusting 6
2020-Jan-28 20:05 299 2 gusting 6
2020-Jan-28 20:00 305 0 gusting 6
2020-Jan-28 19:55 287 0 gusting 6
2020-Jan-28 19:50 275 0 gusting 4
2020-Jan-28 19:40 293 0 gusting 6
2020-Jan-28 19:35 297 1 gusting 6
2020-Jan-28 19:30 275 1 gusting 6
2020-Jan-28 19:25 270 0 gusting 6
2020-Jan-28 19:20 291 0 gusting 6
2020-Jan-28 19:15 293 2 gusting 7
2020-Jan-28 19:05 288 0 gusting 4
2020-Jan-28 19:02 224 0 gusting 6
2020-Jan-28 18:56 260 1 gusting 6
2020-Jan-28 18:50 290 1 gusting 5
2020-Jan-28 18:40 296 0 gusting 4
2020-Jan-28 18:36 295 0 gusting 6
2020-Jan-28 18:34 294 1 gusting 6
2020-Jan-28 18:25 279 1 gusting 3
2020-Jan-28 18:20 288
2020-Jan-28 18:17 269 0 gusting 4
2020-Jan-28 18:10 289 0 gusting 4
2020-Jan-28 18:06 292
2020-Jan-28 18:00 303
2020-Jan-28 17:55 288 0 gusting 5
2020-Jan-28 17:50 287 0 gusting 7
2020-Jan-28 17:40 287
2020-Jan-28 17:35 279
2020-Jan-28 17:31 295
2020-Jan-28 17:25 290
2020-Jan-28 17:20 302
2020-Jan-28 17:16 288
2020-Jan-28 17:10 283
2020-Jan-28 17:05 294
2020-Jan-28 17:00 315
2020-Jan-28 16:55 298
2020-Jan-28 16:50 291
2020-Jan-28 16:40 294
2020-Jan-28 16:35 283
2020-Jan-28 16:30 295
2020-Jan-28 16:25 292
2020-Jan-28 16:20 283
2020-Jan-28 16:16 287
2020-Jan-28 16:10 281
2020-Jan-28 16:05 312
2020-Jan-28 15:55 302
2020-Jan-28 15:40 295
2020-Jan-28 15:35 284 0 gusting 3
2020-Jan-28 15:25 292
2020-Jan-28 15:20 294
2020-Jan-28 15:15 303 0 gusting 6
2020-Jan-28 15:10 284
2020-Jan-28 15:05 269 0 gusting 5
2020-Jan-28 14:55 291
2020-Jan-28 14:51 277
2020-Jan-28 14:35 292 1 gusting 4
2020-Jan-28 14:33 293 0 gusting 3
2020-Jan-28 14:26 289 0 gusting 6
2020-Jan-28 14:21 316 1 gusting 6
2020-Jan-28 14:16 297 0 gusting 3
2020-Jan-28 14:10 294 0 gusting 3
2020-Jan-28 14:05 287
2020-Jan-28 14:01 258
2020-Jan-28 13:55 292
2020-Jan-28 13:50 300 0 gusting 6
2020-Jan-28 13:40 280 0 gusting 6
2020-Jan-28 13:35 288 0 gusting 6
2020-Jan-28 13:31 274
2020-Jan-28 13:26 288
2020-Jan-28 13:20 292
2020-Jan-28 13:16 272
2020-Jan-28 13:10 290
2020-Jan-28 13:05 302 0 gusting 4
2020-Jan-28 13:01 296
2020-Jan-28 12:55 289
2020-Jan-28 12:50 292
2020-Jan-28 12:40 281
2020-Jan-28 12:35 300 0 gusting 3
2020-Jan-28 12:30 287
2020-Jan-28 12:25 292
2020-Jan-28 12:20 291
2020-Jan-28 12:15 304
2020-Jan-28 12:10 281
2020-Jan-28 12:00 286
2020-Jan-28 11:55 291
2020-Jan-28 11:40 307 0 gusting 6
2020-Jan-28 11:35 290
2020-Jan-28 11:30 298
2020-Jan-28 11:25 288 0 gusting 6
2020-Jan-28 11:20 240
2020-Jan-28 11:15 288 0 gusting 7
2020-Jan-28 11:10 283
2020-Jan-28 11:02 313
2020-Jan-28 10:55 279 1 gusting 6
2020-Jan-28 10:51 290
2020-Jan-28 10:40 300 0 gusting 6
2020-Jan-28 10:36 245 0 gusting 9
2020-Jan-28 10:32 302 0 gusting 9
2020-Jan-28 10:25 259
2020-Jan-28 10:20 273 0 gusting 5
2020-Jan-28 10:17 297 0 gusting 5
2020-Jan-28 10:10 307 0 gusting 6
2020-Jan-28 10:05 292 0 gusting 6
2020-Jan-28 10:02 290 0 gusting 9
2020-Jan-28 09:55 303
2020-Jan-28 09:50 271 0 gusting 4
2020-Jan-28 09:40 284 0 gusting 6
2020-Jan-28 09:35 296 1 gusting 7
2020-Jan-28 09:31 289 1 gusting 7
2020-Jan-28 09:25 292 0 gusting 7
2020-Jan-28 09:20 269 1 gusting 6
2020-Jan-28 09:16 293 0 gusting 10
2020-Jan-28 09:10 288
2020-Jan-28 09:05 284
2020-Jan-28 09:01 287 0 gusting 5
2020-Jan-28 08:55 298
2020-Jan-28 08:50 298
2020-Jan-28 08:40 302 0 gusting 6
2020-Jan-28 08:35 292 0 gusting 6
2020-Jan-28 08:31 293
2020-Jan-28 08:25 294
2020-Jan-28 08:20 296 0 gusting 3
2020-Jan-28 08:16 267
2020-Jan-28 08:10 177
2020-Jan-28 08:05 288 0 gusting 6
2020-Jan-28 08:00 293 0 gusting 4
2020-Jan-28 07:55 295
2020-Jan-28 07:50 292
2020-Jan-28 07:40 290 0 gusting 6
2020-Jan-28 07:30 283 0 gusting 6
2020-Jan-28 07:20 273 0 gusting 6
2020-Jan-28 07:10 299 2 gusting 12
2020-Jan-28 07:05 277
2020-Jan-28 07:00 309
2020-Jan-28 06:55 288 1 gusting 8
2020-Jan-28 06:47 294 0 gusting 4
2020-Jan-28 06:36 282 0 gusting 6
2020-Jan-28 06:31 292 1 gusting 6
2020-Jan-28 06:25 288 0 gusting 4
2020-Jan-28 06:20 288 1 gusting 4
2020-Jan-28 06:16 298
2020-Jan-28 06:11 299 1 gusting 4
2020-Jan-28 06:05 281 1 gusting 6
2020-Jan-28 06:01 313 1 gusting 6
2020-Jan-28 05:55 302
2020-Jan-28 05:50 291 0 gusting 6
2020-Jan-28 05:46 304 0 gusting 5
2020-Jan-28 05:40 289 0 gusting 3
2020-Jan-28 05:36 298
2020-Jan-28 05:31 292
2020-Jan-28 05:25 285 0 gusting 4
2020-Jan-28 05:20 294 1 gusting 4
2020-Jan-28 05:16 294
2020-Jan-28 05:10 300 0 gusting 6
2020-Jan-28 05:05 290 0 gusting 4
2020-Jan-28 05:02 289 0 gusting 4
2020-Jan-28 04:55 306 0 gusting 3
2020-Jan-28 04:50 300
2020-Jan-28 04:45 300
2020-Jan-28 04:40 298 0 gusting 3
2020-Jan-28 04:35 298
2020-Jan-28 04:31 290
2020-Jan-28 04:25 292
2020-Jan-28 04:20 296 0 gusting 4
2020-Jan-28 04:16 281 0 gusting 3
2020-Jan-28 04:10 297 0 gusting 6
2020-Jan-28 04:05 296
2020-Jan-28 04:01 291
2020-Jan-28 03:55 294
2020-Jan-28 03:50 296
2020-Jan-28 03:45 287
2020-Jan-28 03:40 288
2020-Jan-28 03:35 273
2020-Jan-28 03:31 289 0 gusting 4
2020-Jan-28 03:25 313 0 gusting 3
2020-Jan-28 03:20 291
2020-Jan-28 03:10 300
2020-Jan-28 03:05 294 0 gusting 2
2020-Jan-28 03:00 298
2020-Jan-28 02:50 279
2020-Jan-28 02:47 279
2020-Jan-28 02:36 279
2020-Jan-28 02:33 275
2020-Jan-28 02:25 273
2020-Jan-28 02:21 273
2020-Jan-28 02:16 273
2020-Jan-28 02:10 284
2020-Jan-28 02:05 270
2020-Jan-28 02:01 298
2020-Jan-28 01:55 281
2020-Jan-28 01:51 281
2020-Jan-28 01:47 287
2020-Jan-28 01:40 293
2020-Jan-28 01:35 301
2020-Jan-28 01:30 301
2020-Jan-28 01:25 301
2020-Jan-28 01:20 301
2020-Jan-28 01:10 296
2020-Jan-28 01:00 288
2020-Jan-28 00:55 293
2020-Jan-28 00:50 293
2020-Jan-28 00:40 293
2020-Jan-28 00:35 293
2020-Jan-28 00:25 287
2020-Jan-28 00:20 286
2020-Jan-28 00:10 290
2020-Jan-28 00:05 290
2020-Jan-28 00:00 290
2020-Jan-27 23:55 288
2020-Jan-27 23:50 304
2020-Jan-27 23:40 308
2020-Jan-27 23:30 298
2020-Jan-27 23:25 304
2020-Jan-27 23:20 294
2020-Jan-27 23:15 301
2020-Jan-27 23:10 300
2020-Jan-27 23:00 298
2020-Jan-27 22:55 309
2020-Jan-27 22:50 293
2020-Jan-27 22:40 286
2020-Jan-27 22:35 297 0 gusting 6
2020-Jan-27 22:25 302 0 gusting 3
2020-Jan-27 22:20 295 0 gusting 4
2020-Jan-27 22:10 296
2020-Jan-27 22:05 297
2020-Jan-27 21:55 290 0 gusting 4
2020-Jan-27 21:50 292
2020-Jan-27 21:45 309
2020-Jan-27 21:40 277
2020-Jan-27 21:30 294
2020-Jan-27 21:25 297
2020-Jan-27 21:20 305
2020-Jan-27 21:15 273
2020-Jan-27 21:10 270
2020-Jan-27 21:02 311 0 gusting 6
2020-Jan-27 20:56 283
2020-Jan-27 20:50 284
2020-Jan-27 20:47 288 0 gusting 6
2020-Jan-27 20:40 278 0 gusting 6
2020-Jan-27 20:36 294
2020-Jan-27 20:32 250
2020-Jan-27 20:26 306 1 gusting 7
2020-Jan-27 20:20 313 0 gusting 7
2020-Jan-27 20:18 291 1 gusting 6
2020-Jan-27 20:11 299
2020-Jan-27 20:02 313
2020-Jan-27 19:50 303
2020-Jan-27 19:46 267
2020-Jan-27 19:41 355
2020-Jan-27 19:35 286
2020-Jan-27 19:31 291
2020-Jan-27 19:26 258
2020-Jan-27 19:20 219 0 gusting 7
2020-Jan-27 19:18 323 0 gusting 7
2020-Jan-27 19:10 267 0 gusting 6
2020-Jan-27 19:01 288
2020-Jan-27 18:55 198 0 gusting 6
2020-Jan-27 18:50 301
2020-Jan-27 18:46 288
2020-Jan-27 18:40 233
2020-Jan-27 18:35 311
2020-Jan-27 18:31 272 0 gusting 9
2020-Jan-27 18:25 286
2020-Jan-27 18:21 294 0 gusting 13
2020-Jan-27 18:17 284 2 gusting 13
2020-Jan-27 18:10 257
2020-Jan-27 18:01 253 0 gusting 6
2020-Jan-27 17:55 215 0 gusting 5
2020-Jan-27 17:50 327
2020-Jan-27 17:47 202
2020-Jan-27 17:40 233 0 gusting 4
2020-Jan-27 17:35 195
2020-Jan-27 17:31 309 0 gusting 6
2020-Jan-27 17:25 269
2020-Jan-27 17:20 267 0 gusting 6
2020-Jan-27 17:15 303 0 gusting 6
2020-Jan-27 17:10 300
2020-Jan-27 17:00 143
2020-Jan-27 16:55 296 0 gusting 6
2020-Jan-27 16:50 309 0 gusting 7
2020-Jan-27 16:46 256 0 gusting 7
2020-Jan-27 16:40 262 1 gusting 8
2020-Jan-27 16:35 226
2020-Jan-27 16:30 306 0 gusting 7
2020-Jan-27 16:25 278 0 gusting 7
2020-Jan-27 16:15 296
2020-Jan-27 16:10 235 0 gusting 5
2020-Jan-27 16:00 238
2020-Jan-27 15:55 276 0 gusting 5
2020-Jan-27 15:50 242
2020-Jan-27 15:40 297
2020-Jan-27 15:35 182
2020-Jan-27 15:32 234
2020-Jan-27 15:26 277
2020-Jan-27 15:20 253
2020-Jan-27 15:17 292
2020-Jan-27 15:11 192 0 gusting 5
2020-Jan-27 15:03 344 0 gusting 6
2020-Jan-27 14:55 228
2020-Jan-27 14:51 232 0 gusting 5
2020-Jan-27 14:46 302 0 gusting 5
2020-Jan-27 14:41 294
2020-Jan-27 14:35 309
2020-Jan-27 14:31 261
2020-Jan-27 14:25 318
2020-Jan-27 14:20 329
2020-Jan-27 14:16 300
2020-Jan-27 14:11 294
2020-Jan-27 14:01 249
2020-Jan-27 13:55 141
2020-Jan-27 13:50 181
2020-Jan-27 13:45 253
2020-Jan-27 13:40 304
2020-Jan-27 13:35 236
2020-Jan-27 13:31 275
2020-Jan-27 13:25 308
2020-Jan-27 13:20 210
2020-Jan-27 13:16 171
2020-Jan-27 13:10 276
2020-Jan-27 13:02 233
2020-Jan-27 12:55 254
2020-Jan-27 12:50 291
2020-Jan-27 12:45 284
2020-Jan-27 12:40 224
2020-Jan-27 12:35 257
2020-Jan-27 12:30 321
2020-Jan-27 12:25 188
2020-Jan-27 12:20 279 0 gusting 4
2020-Jan-27 12:15 304
2020-Jan-27 12:10 248
2020-Jan-27 12:01 309
2020-Jan-27 11:55 240
2020-Jan-27 11:45 280
2020-Jan-27 11:40 188
2020-Jan-27 11:35 293
2020-Jan-27 11:25 220
2020-Jan-27 11:20 192
2020-Jan-27 11:10 295
2020-Jan-27 11:00 240
2020-Jan-27 10:55 227
2020-Jan-27 10:50 281
2020-Jan-27 10:45 301
2020-Jan-27 10:40 232
2020-Jan-27 10:35 274
2020-Jan-27 10:30 269
2020-Jan-27 10:20 193
2020-Jan-27 10:17 280
2020-Jan-27 10:11 180
2020-Jan-27 10:02 227
2020-Jan-27 09:55 242
2020-Jan-27 09:50 261
2020-Jan-27 09:47 211
2020-Jan-27 09:40 186
2020-Jan-27 09:35 255
2020-Jan-27 09:31 134
2020-Jan-27 09:25 227
2020-Jan-27 09:20 290
2020-Jan-27 09:16 252
2020-Jan-27 09:10 343
2020-Jan-27 09:02 272
2020-Jan-27 08:55 231
2020-Jan-27 08:50 296
2020-Jan-27 08:46 232
2020-Jan-27 08:40 107
2020-Jan-27 08:35 264
2020-Jan-27 08:30 022
2020-Jan-27 08:25 207
2020-Jan-27 08:20 263
2020-Jan-27 08:16 286
2020-Jan-27 08:10 298
2020-Jan-27 08:00 317
2020-Jan-27 07:55 288
2020-Jan-27 07:50 311
2020-Jan-27 07:46 308 0 gusting 5
2020-Jan-27 07:40 304
2020-Jan-27 07:35 314
2020-Jan-27 07:30 302
2020-Jan-27 07:25 323
2020-Jan-27 07:20 217
2020-Jan-27 07:15 247 0 gusting 6
2020-Jan-27 07:10 325 0 gusting 5
2020-Jan-27 07:00 325
2020-Jan-27 06:55 119
2020-Jan-27 06:50 256
2020-Jan-27 06:40 283
2020-Jan-27 06:25 138
2020-Jan-27 06:20 264
2020-Jan-27 06:17 302
2020-Jan-27 06:10 243
2020-Jan-27 06:02 223
2020-Jan-27 05:55 227
2020-Jan-27 05:50 206
2020-Jan-27 05:47 277
2020-Jan-27 05:40 215
2020-Jan-27 05:35 245
2020-Jan-27 05:31 313
2020-Jan-27 05:25 317
2020-Jan-27 05:20 253
2020-Jan-27 05:16 299
2020-Jan-27 05:10 223
2020-Jan-27 05:01 285
2020-Jan-27 04:55 282
2020-Jan-27 04:50 295
2020-Jan-27 04:48 288
2020-Jan-27 04:40 293
2020-Jan-27 04:35 297
2020-Jan-27 04:31 288
2020-Jan-27 04:25 293
2020-Jan-27 04:20 270
2020-Jan-27 04:16 213
2020-Jan-27 04:10 293
2020-Jan-27 04:02 202
2020-Jan-27 03:55 287
2020-Jan-27 03:50 259
2020-Jan-27 03:46 268
2020-Jan-27 03:40 265
2020-Jan-27 03:35 256
2020-Jan-27 03:30 252
2020-Jan-27 03:25 298 0 gusting 6
2020-Jan-27 03:20 296
2020-Jan-27 03:15 264 0 gusting 6
2020-Jan-27 03:10 275
2020-Jan-27 03:01 248
2020-Jan-27 02:55 319
2020-Jan-27 02:50 236
2020-Jan-27 02:46 248
2020-Jan-27 02:40 294
2020-Jan-27 02:35 009
2020-Jan-27 02:30 294
2020-Jan-27 02:25 255
2020-Jan-27 02:20 234
2020-Jan-27 02:15 248
2020-Jan-27 02:10 275
2020-Jan-27 02:01 232
2020-Jan-27 01:55 245
2020-Jan-27 01:50 248
2020-Jan-27 01:40 299
2020-Jan-27 01:30 267 0 gusting 5
2020-Jan-27 01:25 269
2020-Jan-27 01:15 301 0 gusting 6
2020-Jan-27 01:10 287 0 gusting 5
2020-Jan-27 01:01 317
2020-Jan-27 01:00 233
2020-Jan-27 00:50 282 0 gusting 5
2020-Jan-27 00:47 244
2020-Jan-27 00:40 223
2020-Jan-27 00:35 292
2020-Jan-27 00:32 273 0 gusting 6
2020-Jan-27 00:25 296
2020-Jan-27 00:20 297
2020-Jan-27 00:16 279
2020-Jan-27 00:10 306
2020-Jan-27 00:05 302
2020-Jan-27 00:02 302 0 gusting 8
2020-Jan-26 23:56 290 1 gusting 9
2020-Jan-26 23:50 281 2 gusting 9
2020-Jan-26 23:46 304 0 gusting 6
2020-Jan-26 23:40 291
2020-Jan-26 23:35 296
2020-Jan-26 23:32 285 0 gusting 10
2020-Jan-26 23:25 281 1 gusting 10
2020-Jan-26 23:20 297 0 gusting 6
2020-Jan-26 23:17 281
2020-Jan-26 23:10 304 3 gusting 10
2020-Jan-26 23:05 300
2020-Jan-26 23:02 299
2020-Jan-26 22:55 312
2020-Jan-26 22:51 322
2020-Jan-26 22:47 283 0 gusting 7
2020-Jan-26 22:40 281
2020-Jan-26 22:35 294
2020-Jan-26 22:31 275
2020-Jan-26 22:25 291 1 gusting 9
2020-Jan-26 22:20 267
2020-Jan-26 22:17 293
2020-Jan-26 22:10 294 0 gusting 6
2020-Jan-26 22:05 292
2020-Jan-26 22:01 292